Overview Statistics Trail Chart Weather Telemetry Raw packets
 

This is the latest recevied weather packets stored in our database for station/object W5ITZ. If no packets are shown the sender has not sent any weather packets the latest 10 day(s).

<< 42 43 44 45 46 47 48 >>
Time Temp. Humidity Pressure Rain* Wind** Luminosity Snow
1787939737 36.11° C 47% 1016.7 hPa 0 mm - 778 W/m² -
1787939431 35.56° C 49% 1016.9 hPa 0 mm - 891 W/m² -
1787939127 35° C 51% 1017.1 hPa 0 mm - 867 W/m² -
1787938826 35° C 51% 1017.1 hPa 0 mm - 339 W/m² -
1787938521 35° C 51% 1017 hPa 0 mm - 425 W/m² -
1787938217 35° C 50% 1017.1 hPa 0 mm - 1084 W/m² -
1787937911 35° C 51% 1017 hPa 0 mm - 1049 W/m² -
1787937607 34.44° C 51% 1017.1 hPa 0 mm - 953 W/m² -
1787937303 34.44° C 51% 1016.9 hPa 0 mm - 1003 W/m² -
1787936999 34.44° C 52% 1016.9 hPa 0 mm - 376 W/m² -
1787936698 34.44° C 53% 1017 hPa 0 mm - 895 W/m² -
1787936392 34.44° C 54% 1017.4 hPa 0 mm - 886 W/m² -
1787936087 35° C 52% 1017.2 hPa 0 mm - 896 W/m² -
1787935783 35° C 51% 1017.3 hPa 0 mm - 885 W/m² -
1787935478 33.89° C 54% 1017.3 hPa 0 mm - 862 W/m² -
1787935174 33.89° C 52% 1017.4 hPa 0 mm - 843 W/m² -
1787934870 33.89° C 57% 1017.5 hPa 0 mm - 830 W/m² -
1787934569 33.89° C 57% 1017.5 hPa 0 mm - 830 W/m² -
1787934264 33.89° C 58% 1017.5 hPa 0 mm - 805 W/m² -
1787933963 33.33° C 58% 1017.4 hPa 0 mm - 811 W/m² -
1787933662 33.33° C 58% 1017.3 hPa 0 mm - 766 W/m² -
1787933357 32.78° C 59% 1017.3 hPa 0 mm - 769 W/m² -
1787933057 33.33° C 58% 1017.5 hPa 0 mm - 748 W/m² -
1787932756 32.78° C 62% 1017.7 hPa 0 mm - 726 W/m² -
1787932455 32.78° C 65% 1017.3 hPa 0 mm - 727 W/m² -

* Rain latest hour (hover to see other rain measurements)
** Current wind speed in m/s (hover to see current wind gust speed)